Regional Weather Roundup
Issued by NWS

Home | Current Version | Previous Version | Graphics & Text | Print | Product List | Glossary On
Versions: 1 2 3 4 5 6 7 8 9 10 11 12 13 14 15 16 17 18 19 20 21 22 23 24 25 26 27 28 29 30 31 32 33 34 35 36 37 38 39 40 41 42 43 44 45 46 47 48 49 50
000
ASUS44 KMEG 260110
RWRTN
TENNESSEE HOURLY STATE WEATHER ROUNDUP
NATIONAL WEATHER SERVICE MEMPHIS TN
800 PM CDT WED APR 25 2018

TNZ002-004-019-021-049-052-054-088>092-260200-
WEST TENNESSEE

CITY           SKY/WX    TMP DP  RH WIND       PRES   REMARKS
MEMPHIS INTL   CLOUDY    62  46  55 E5        29.95F
NWS MEMPHIS      N/A     60 N/A N/A MISG        N/A
JACKSON        CLOUDY    56  54  93 N3        29.94F
DYERSBURG      CLOUDY    58  52  80 NW3       29.96F
SOMERVILLE       N/A     59  50  72 CALM      29.94F
COVINGTON      CLOUDY    57  54  88 SW3       29.95S
UNION CITY     CLOUDY    59  50  72 W3        29.95S
BOLIVAR        CLOUDY    57  52  82 CALM      29.95S
PARIS          CLOUDY    59  50  72 SW8       29.96R
HUNTINGDON     CLOUDY    55  52  88 SW6       29.96F
LEXINGTON      CLOUDY    54  54 100 N3        29.96S
SAVANNAH       CLOUDY    57  52  82 N3        29.95S
$$

TNZ008-025-027-028-033-062-065-066-260200-
NORTH MIDDLE TENNESSEE

CITY           SKY/WX    TMP DP  RH WIND       PRES   REMARKS
NASHVILLE      CLOUDY    66  49  54 CALM      29.95R
PORTLAND       CLOUDY    63  52  67 CALM      29.94S
CLARKSVILLE    FAIR      64  49  57 CALM      29.93F
SMYRNA         MOCLDY    63  52  67 CALM      29.96R
COOKEVILLE     CLEAR     55  52  88 CALM      29.94S
LIVINGSTON     CLEAR     55  50  82 CALM      29.94S
GALLATIN       PTCLDY    63  54  72 CALM      29.97R
CROSSVILLE     FAIR      54  45  71 CALM      29.96F
$$

TNZ061-075-076-078-094-096-097-260200-
SOUTH MIDDLE TENNESSEE

CITY           SKY/WX    TMP DP  RH WIND       PRES   REMARKS
LEWISBURG      MOCLDY    61  54  77 CALM      29.94S
FAYETTEVILLE   CLOUDY    63  52  67 CALM      29.94S
TULLAHOMA      CLOUDY    61  52  72 CALM      29.94S
WINCHESTER     MOCLDY    59  52  77 CALM      29.95R
MCMINNVILLE    MOCLDY    61  50  67 CALM      29.95R
COLUMBIA       CLOUDY    63  54  72 SW9       29.94S
SHELBYVILLE    CLOUDY    63  52  67 CALM      29.95R
$$

TNZ017-018-042-046-047-260200-
NORTHEAST TENNESSEE

CITY           SKY/WX    TMP DP  RH WIND       PRES   REMARKS
TRI CITIES     CLOUDY    58  51  78 NW10      29.93R
ELIZABETHTON   CLOUDY    57  52  82 VRB5      29.92R
$$

TNZ012-013-036-069-073-074-260200-
CENTRAL EAST TENNESSEE

CITY           SKY/WX    TMP DP  RH WIND       PRES   REMARKS
KNOXVILLE      CLOUDY    58  51  78 CALM      29.95R
OAK RIDGE      CLOUDY    59  52  77 VRB3      29.96S
DOWNTOWN KNOXV CLOUDY    57  54  88 CALM      29.95S
GATLINBURG     CLOUDY    57  52  82 CALM      29.95S
MORRISTOWN     CLOUDY    55  52  88 NW6       29.94S
JACKSBORO      MOCLDY    57  50  77 CALM      29.99S
$$

TNZ083-085-099-260200-
SOUTHEAST TENNESSEE

CITY           SKY/WX    TMP DP  RH WIND       PRES   REMARKS
CHATTANOOGA    FAIR      62  49  62 CALM      29.94S
DAYTON         PTCLDY    57  54  88 CALM      29.93F
$$

SKY/WX REPORTED AS FAIR MEANS FEW OR NO CLOUDS BELOW
12 THOUSAND FEET.




USA.gov is the U.S. government's official web portal to all federal, state and local government web resources and services.